• In Uzbekistan
  • List of Countries
  • For 7 days
  • Water Temperature
  • Satellite Maps
  • Weather Map
  • Weather Widgets
  • user-avatar
    Login

    Hourly Weather Wiesloch

    Today, 18 November, Saturday

    Time Temperature Precipitation Wind Pressure Humidity
    00:00 +3°C° 0 mm 0 mps 753 mmHg 92%
    01:00 +3°C° 0 mm 0 mps 752 mmHg 92%
    02:00 +3°C° 0 mm 0 mps 752 mmHg 93%
    03:00 +3°C° 0 mm 0 mps 752 mmHg 93%
    04:00 +3°C° 0 mm 0 mps 752 mmHg 93%
    05:00 +3°C° 0 mm 1 mps 752 mmHg 94%
    06:00 +3°C° 0 mm 1 mps 751 mmHg 94%
    07:00 +3°C° 0 mm 1 mps 751 mmHg 94%
    08:00 +4°C° 0 mm 1 mps 751 mmHg 92%
    09:00 +4°C° 0 mm 2 mps 751 mmHg 89%
    10:00 +4°C° 0 mm 2 mps 751 mmHg 86%
    11:00 +4°C° 0 mm 3 mps 751 mmHg 81%
    12:00 +5°C° 0 mm 4 mps 751 mmHg 76%
    13:00 +6°C° 0 mm 4 mps 750 mmHg 70%
    14:00 +5°C° 0 mm 4 mps 750 mmHg 71%
    15:00 +5°C° 0 mm 4 mps 749 mmHg 72%
    16:00 +4°C° 0 mm 4 mps 749 mmHg 73%
    17:00 +4°C° 0 mm 4 mps 749 mmHg 74%
    18:00 +4°C° 0 mm 4 mps 749 mmHg 76%
    19:00 +4°C° 0 mm 4 mps 749 mmHg 77%
    20:00 +4°C° 0 mm 4 mps 749 mmHg 78%
    21:00 +3°C° 0 mm 4 mps 749 mmHg 80%
    22:00 +3°C° 0 mm 4 mps 749 mmHg 82%
    23:00 +3°C° 0.2 mm 5 mps 748 mmHg 83%

    Tomorrow, 19 November, Sunday

    Time Temperature Precipitation Wind Pressure Humidity
    00:00 +3°C° 0.2 mm 5 mps 748 mmHg 85%
    01:00 +3°C° 0.2 mm 5 mps 748 mmHg 86%
    02:00 +4°C° 0.4 mm 4 mps 747 mmHg 87%
    03:00 +4°C° 0.4 mm 4 mps 747 mmHg 88%
    04:00 +4°C° 0.4 mm 4 mps 747 mmHg 88%
    05:00 +4°C° 0.2 mm 4 mps 747 mmHg 88%
    06:00 +4°C° 0.2 mm 4 mps 747 mmHg 88%
    07:00 +4°C° 0.2 mm 3 mps 747 mmHg 88%
    08:00 +4°C° 0.1 mm 3 mps 748 mmHg 83%
    09:00 +4°C° 0.1 mm 4 mps 748 mmHg 79%
    10:00 +5°C° 0.1 mm 4 mps 749 mmHg 74%
    11:00 +5°C° 0 mm 4 mps 749 mmHg 70%
    12:00 +6°C° 0 mm 4 mps 749 mmHg 67%
    13:00 +6°C° 0 mm 4 mps 749 mmHg 63%
    14:00 +6°C° 0 mm 4 mps 749 mmHg 66%
    15:00 +6°C° 0 mm 4 mps 749 mmHg 68%
    16:00 +5°C° 0 mm 4 mps 749 mmHg 71%
    17:00 +5°C° 0 mm 4 mps 750 mmHg 74%
    18:00 +4°C° 0 mm 4 mps 750 mmHg 77%
    19:00 +4°C° 0 mm 4 mps 750 mmHg 80%
    20:00 +4°C° 0 mm 4 mps 751 mmHg 81%
    21:00 +3°C° 0 mm 4 mps 751 mmHg 83%
    22:00 +3°C° 0 mm 4 mps 751 mmHg 84%
    23:00 +3°C° 0 mm 4 mps 751 mmHg 86%

    Day after tomorrow, 20 November, Monday

    Time Temperature Precipitation Wind Pressure Humidity
    00:00 +2°C° 0 mm 3 mps 751 mmHg 87%
    01:00 +2°C° 0 mm 3 mps 752 mmHg 89%
    02:00 +2°C° 0 mm 3 mps 751 mmHg 89%
    03:00 +1°C° 0 mm 3 mps 751 mmHg 89%
    04:00 +1°C° 0 mm 3 mps 751 mmHg 90%
    05:00 +1°C° 0 mm 3 mps 751 mmHg 90%
    06:00 +1°C° 0 mm 3 mps 751 mmHg 89%
    07:00 0°C° 0 mm 3 mps 751 mmHg 89%
    08:00 +1°C° 0 mm 3 mps 751 mmHg 84%
    09:00 +2°C° 0 mm 3 mps 751 mmHg 80%
    10:00 +3°C° 0 mm 4 mps 751 mmHg 75%
    11:00 +3°C° 0.1 mm 4 mps 750 mmHg 73%
    12:00 +4°C° 0.1 mm 4 mps 750 mmHg 71%
    13:00 +5°C° 0.1 mm 5 mps 749 mmHg 69%
    14:00 +5°C° 0.1 mm 5 mps 749 mmHg 71%
    15:00 +5°C° 0.1 mm 5 mps 748 mmHg 74%
    16:00 +5°C° 0.1 mm 5 mps 747 mmHg 76%
    17:00 +6°C° 0.1 mm 5 mps 747 mmHg 78%
    18:00 +6°C° 0.1 mm 5 mps 747 mmHg 79%
    19:00 +6°C° 0.1 mm 5 mps 747 mmHg 81%
    20:00 +5°C° 0.1 mm 6 mps 746 mmHg 82%
    21:00 +5°C° 0.1 mm 6 mps 746 mmHg 83%
    22:00 +5°C° 0.1 mm 6 mps 746 mmHg 83%
    23:00 +7°C° 1.4 mm 6 mps 746 mmHg 84%

    21 November, Tuesday

    Time Temperature Precipitation Wind Pressure Humidity
    00:00 +7°C° 1.4 mm 6 mps 746 mmHg 85%
    01:00 +6°C° 1.4 mm 7 mps 746 mmHg 85%
    02:00 +7°C° 0.1 mm 6 mps 746 mmHg 86%
    03:00 +7°C° 0.1 mm 6 mps 746 mmHg 86%
    04:00 +7°C° 0.1 mm 6 mps 746 mmHg 86%
    05:00 +7°C° 0.2 mm 6 mps 746 mmHg 86%
    06:00 +7°C° 0.2 mm 6 mps 746 mmHg 87%
    07:00 +7°C° 0.2 mm 6 mps 746 mmHg 87%
    08:00 +7°C° 0.1 mm 6 mps 746 mmHg 86%
    09:00 +7°C° 0.1 mm 5 mps 747 mmHg 86%
    10:00 +7°C° 0.1 mm 5 mps 747 mmHg 86%
    11:00 +7°C° 0.1 mm 5 mps 747 mmHg 84%
    12:00 +8°C° 0.1 mm 5 mps 747 mmHg 83%
    13:00 +8°C° 0.1 mm 5 mps 747 mmHg 81%
    14:00 +8°C° 0 mm 4 mps 747 mmHg 82%
    15:00 +8°C° 0 mm 4 mps 746 mmHg 82%
    16:00 +9°C° 0 mm 3 mps 746 mmHg 83%
    17:00 +8°C° 0 mm 3 mps 746 mmHg 85%
    18:00 +8°C° 0 mm 3 mps 746 mmHg 87%
    19:00 +7°C° 0 mm 2 mps 747 mmHg 88%
    20:00 +7°C° 0 mm 2 mps 746 mmHg 88%
    21:00 +7°C° 0 mm 2 mps 746 mmHg 88%
    22:00 +5°C° 0 mm 3 mps 746 mmHg 88%
    23:00 +6°C° 0 mm 2 mps 746 mmHg 88%

    22 November, Wednesday

    Time Temperature Precipitation Wind Pressure Humidity
    00:00 +6°C° 0 mm 2 mps 746 mmHg 88%
    01:00 +6°C° 0 mm 2 mps 746 mmHg 88%
    02:00 +6°C° 0 mm 2 mps 746 mmHg 88%
    03:00 +5°C° 0 mm 2 mps 745 mmHg 88%
    04:00 +5°C° 0 mm 2 mps 745 mmHg 89%
    05:00 +5°C° 0 mm 2 mps 745 mmHg 89%
    06:00 +5°C° 0 mm 2 mps 745 mmHg 89%
    07:00 +5°C° 0 mm 2 mps 745 mmHg 89%
    08:00 +6°C° 0 mm 2 mps 745 mmHg 85%
    09:00 +7°C° 0 mm 3 mps 745 mmHg 81%
    10:00 +7°C° 0 mm 3 mps 745 mmHg 78%
    11:00 +9°C° 0 mm 3 mps 745 mmHg 73%
    12:00 +10°C° 0 mm 3 mps 745 mmHg 69%
    13:00 +11°C° 0 mm 3 mps 745 mmHg 64%
    14:00 +12°C° 0 mm 2 mps 744 mmHg 67%
    15:00 +10°C° 0 mm 2 mps 744 mmHg 71%
    16:00 +10°C° 0 mm 1 mps 744 mmHg 74%
    17:00 +10°C° 0 mm 1 mps 744 mmHg 75%
    18:00 +9°C° 0 mm 1 mps 744 mmHg 77%
    19:00 +7°C° 0 mm 2 mps 744 mmHg 78%
    20:00 +7°C° 0 mm 2 mps 744 mmHg 77%
    21:00 +7°C° 0 mm 2 mps 744 mmHg 76%
    22:00 +6°C° 0 mm 2 mps 744 mmHg 76%
    23:00 +6°C° 0 mm 2 mps 744 mmHg 74%

    23 November, Thursday

    Time Temperature Precipitation Wind Pressure Humidity
    00:00 +6°C° 0 mm 2 mps 744 mmHg 73%
    01:00 +6°C° 0 mm 2 mps 743 mmHg 72%
    02:00 +6°C° 0 mm 2 mps 743 mmHg 72%
    03:00 +6°C° 0 mm 2 mps 743 mmHg 72%
    04:00 +6°C° 0 mm 2 mps 743 mmHg 72%
    05:00 +6°C° 0 mm 2 mps 743 mmHg 72%
    06:00 +6°C° 0 mm 2 mps 743 mmHg 72%
    07:00 +6°C° 0 mm 2 mps 743 mmHg 73%
    08:00 +7°C° 0 mm 2 mps 743 mmHg 69%
    09:00 +8°C° 0 mm 3 mps 743 mmHg 66%
    10:00 +9°C° 0 mm 3 mps 743 mmHg 63%
    11:00 +10°C° 0 mm 3 mps 743 mmHg 59%
    12:00 +12°C° 0 mm 4 mps 743 mmHg 56%
    13:00 +13°C° 0 mm 4 mps 743 mmHg 53%
    14:00 +12°C° 0 mm 4 mps 743 mmHg 55%
    15:00 +12°C° 0 mm 3 mps 743 mmHg 58%
    16:00 +11°C° 0 mm 3 mps 743 mmHg 61%
    17:00 +11°C° 0 mm 3 mps 743 mmHg 62%
    18:00 +10°C° 0 mm 3 mps 743 mmHg 62%
    19:00 +10°C° 0 mm 3 mps 743 mmHg 63%
    20:00 +10°C° 0 mm 3 mps 744 mmHg 63%
    21:00 +10°C° 0 mm 3 mps 744 mmHg 64%
    22:00 +10°C° 0 mm 3 mps 744 mmHg 64%
    23:00 +10°C° 0 mm 3 mps 745 mmHg 65%
    Show more